I-INSPIRE II (42731 NORAD) Tracking and Keplerian Element Data

This shows tracking and keplerian element data for the satellite.

Feedback or suggestion? Click here.




ElementValue
Catalog42731
NameI-INSPIRE II
Epoch Orbit8410
Epoch Day317.3993891
Epoch Year2018
RAAN294.551
Inclination51.629
Eccentricity0.0006796
Argument of Perigee86.8033
Mean Anonmoly273.3757
Mean Motion16.06529512
Decay Rate0.00529693
L11 42731U 98067ML 18317.39938910 .00529693 14667-3 68299-3 0 9997
L22 42731 51.6290 294.5510 0006796 86.8033 273.3757 16.06529512 84108

Live tracking and technical data element details for I-INSPIRE II (NORAD 42731). I-INSPIRE II can be tracked NOW for your location showing map with azimuth and elevation plus other details from your city location.

Track the satellite on the map from your city or location and see movement details for azimuth, elevation, latitude, longitude, range, height, and movement on the map or in text.







IsCatalogInMostPopularTable: catalog: 42731, numindb: 146
Update: records affected: 1



GetName: 42731 I-INSPIRE II

Hit Count: updated at: Wed, 14 Nov 2018 11:37:03 GMT